Location: Badger Butte
(44.9311°N, 118.3053°W)
Time: 04:27:25
(UTC+00:00)

Daily predictions for brighter satellites

Satellite Brightness Start Highest point End
(mag) Time Altitude Azimuth Time Altitude Azimuth Time Altitude Azimuth
Gbstr 26 Del rocket 3.5 01:17:10 10° WNW 01:21:50 69° NNE 01:27:38 10° ESE
CZ-2C R/B 4.2 01:20:18 10° SSW 01:24:30 35° W 01:28:47 10° NNW
BREEZE-M DEB (TANK) 3.5 01:21:13 10° WNW 01:24:47 80° NNE 01:37:38 10° ESE
SPOT 3 Rocket 4.0 01:20:09 10° SE 01:24:56 39° ENE 01:29:46 10° N
Aureole 1 Rocket 4.3 01:19:41 10° SW 01:25:33 55° WNW 01:30:00 10° NNE
Cosmos 1400 Rocket 3.0 01:22:43 10° NNW 01:26:45 81° W 01:30:42 10° S
Cosmos 2360 Rocket 2.5 01:22:41 10° NNW 01:28:22 76° WSW 01:34:00 10° SSE
Abrixas 3.3 01:27:51 10° SSW 01:29:34 20° SSE 01:31:16 10° E
ATLAS 5 CENTAUR R/B 4.4 01:28:51 10° NNW 01:30:14 11° N 01:31:38 10° NNE
USA 234 4.4 01:25:15 10° NE 01:30:52 31° N 01:36:28 10° WNW
COSMO-SKYMED 1 3.2 01:28:01 10° NNE 01:32:03 36° E 01:36:03 10° SSE
Cosmos 2151 3.0 01:29:00 10° N 01:33:19 85° E 01:37:33 10° S
Cosmos 2058 2.9 01:30:04 10° N 01:34:16 86° E 01:38:24 10° S
Cosmos 2098 Rocket 4.2 01:35:12 10° SSE 01:39:37 35° E 01:45:03 10° NNE
CZ-4C R/B 2.6 01:36:17 10° S 01:41:06 40° ESE 01:46:33 10° NE
Cosmos 1805 Rocket 4.2 01:38:08 10° N 01:42:10 34° ENE 01:46:12 10° SE
COSMOS 2428 2.7 01:37:05 10° NNW 01:42:46 67° ENE 01:48:25 10° SE
FENGYUN 3A 4.1 01:39:19 10° SE 01:44:22 41° ENE 01:49:25 10° N
Cosmos 44 Rocket 3.3 01:40:26 10° SSW 01:45:00 54° ESE 01:49:36 10° NE
Cosmos 2333 Rocket 2.7 01:40:05 10° NNW 01:45:29 40° NE 01:50:52 10° SE
GRACE-2 3.7 01:44:42 10° SSE 01:47:11 52° E 01:49:42 10° N
Cosmos 2366 rocket 4.4 01:41:08 10° SSW 01:47:19 70° W 01:53:29 10° N
ERS-2 2.7 01:44:22 10° S 01:48:01 61° WSW 01:51:42 10° NNW
Cosmos 2219 3.5 01:42:54 10° S 01:48:20 45° ESE 01:53:46 10° NE
Cosmos 158 Rocket 3.9 01:45:50 10° S 01:50:51 66° ESE 01:56:04 10° NNE
Cosmos 1666 Rocket 4.4 01:47:47 10° NNE 01:51:33 28° ENE 01:55:16 10° SE
MOS 1 4.3 01:46:15 10° SSE 01:51:55 80° ENE 01:57:38 10° NNW
GRACE-1 3.5 01:50:23 10° S 01:52:57 71° E 01:55:32 10° N
Cosmos 1726 2.7 01:51:32 10° SSE 01:54:54 34° E 01:58:16 10° NNE
Cosmos 2297 Rocket 3.6 01:51:55 10° SE 01:55:05 15° E 01:56:00 15° E
YAOGAN 1 2.9 01:50:47 10° S 01:55:05 70° WSW 01:59:26 10° NNW
Cosmos 1633 Rocket 4.0 01:52:22 10° NNE 01:56:08 26° ENE 01:59:53 10° SE
APEX 2.3 01:53:48 10° SSW 01:56:51 71° ESE 01:59:36 10° NNE
Cosmos 1048 Rocket 3.9 01:52:02 10° S 01:57:04 62° ESE 02:02:08 10° NNE
EO 1 Del DPAF 3.2 01:53:39 10° NNE 01:57:32 82° ESE 02:01:22 10° SSW
CZ-4 R/B 2.8 01:53:55 10° S 01:57:55 44° W 02:01:54 10° NNW
Cosmos 1420 Rocket 4.4 01:56:17 10° NNW 02:01:34 67° WSW 02:06:47 10° S
SKYMED 3 4.5 01:57:51 10° NNE 02:02:13 75° ESE 02:06:33 10° S
NOAA 12 4.0 02:08:14 10° SSE 02:13:33 79° ENE 02:18:53 10° NNW
Cosmos 2219 Rocket 2.1 02:09:21 10° NNW 02:14:58 75° ENE 02:20:35 10° SSE
Cosmos 2084 3.1 02:11:13 10° NW 02:15:00 67° NE 02:17:29 21° SE
Cosmos 1315 Rocket 4.1 02:11:27 10° NNW 02:15:22 44° W 02:19:17 10° SSW
Cosmos 2221 2.6 02:11:26 10° SSW 02:15:46 79° W 02:20:09 10° N
FengYun 1-2 T 4.4 02:13:44 10° SE 02:18:59 49° ENE 02:24:15 10° N
Cosmos 1000 Rocket 4.5 02:12:43 10° N 02:18:59 89° E 02:25:10 10° S
ALOS 2.2 02:15:10 10° SSE 02:19:50 84° ENE 02:24:33 10° NNW
SKYMED 2 3.8 02:15:52 10° N 02:20:13 71° WNW 02:24:32 10° SSW
Cosmos 1934 Rocket 4.1 02:14:46 10° SSE 02:20:57 57° E 02:27:11 10° NNE
Cosmos 1821 Rocket 3.9 02:16:46 10° S 02:22:55 76° E 02:29:13 10° N
Thor Agena Rocket 3.7 02:18:08 10° NNE 02:23:02 46° E 02:27:52 10° S
Cosmos 2239 Rocket 4.4 02:22:06 10° S 02:28:14 83° E 02:34:26 10° N
Cosmos 1331 Rocket 4.0 02:23:52 10° NNW 02:29:03 58° ENE 02:32:59 17° SE
USA 267 4.4 02:35:57 21° SE 02:35:57 21° SE 02:40:22 10° S
SJ-6B 2.8 02:37:14 48° ENE 02:37:15 48° ENE 02:40:53 10° N
Lacrosse 5 rocket 3.4 02:36:36 10° NW 02:39:24 16° N 02:40:29 15° NNE
Aureole 2 Rocket 3.7 02:37:04 10° NNW 02:40:54 50° WSW 02:44:50 10° S
BREEZE-M DEB (TANK) 3.1 02:34:26 10° W 02:44:31 82° N 02:45:54 44° E
H-2A R/B 2.6 02:42:31 23° SSE 02:44:55 80° ENE 02:48:52 10° N
BREEZE-M DEB (TANK) 2.4 02:45:08 10° WSW 02:46:34 43° W 02:46:34 43° W
Abrixas rocket 2.5 02:45:38 10° WNW 02:48:35 60° NNW 02:48:35 60° NNW
Cosmos 44 4.2 02:44:50 10° WSW 02:48:55 40° NW 02:52:16 15° NNE
In-Cosmos 22 Rocket 4.2 02:44:18 10° N 02:50:05 84° E 02:55:55 10° SSE
Cosmos 1470 Rocket 3.9 02:45:46 10° N 02:49:38 46° NE 02:49:38 46° NE
Cosmos 2123 Rocket 3.9 02:45:37 10° N 02:51:54 89° W 02:58:12 10° S
Cosmos 2237 Rocket 2.1 02:46:42 10° NNW 02:52:27 80° ENE 02:55:32 28° SSE
SL-8 R/B 4.0 02:48:47 10° W 02:53:33 57° N 02:54:42 44° NE
SWAS 4.3 02:51:37 10° SSW 02:55:42 67° SE 02:55:42 67° SE
Cosmos 1605 Rocket 3.8 02:51:22 10° S 02:57:25 73° E 03:03:31 10° NNE
Cosmos 1302 Rocket 4.0 02:53:18 10° NNW 02:58:30 60° ENE 02:59:12 55° ESE
MOS 1-B Rocket 3.9 02:56:56 36° SE 02:59:15 61° ENE 03:05:30 10° N
Cosmos 1300 3.3 02:55:31 10° SSW 02:59:16 57° W 03:03:04 10° N
Cosmos 967 Rocket 4.4 02:52:53 10° NNW 02:59:21 73° NE 03:01:49 40° SE
Cosmos 2227 Rocket 2.1 02:55:34 10° S 03:01:09 64° ESE 03:03:07 40° NE
BREEZE M DEB (TANK) 2.8 02:59:21 10° WNW 03:02:09 44° WNW 03:02:09 44° WNW
Cosmos 1153 Rocket 4.5 02:57:04 10° SSE 03:03:01 55° E 03:09:05 10° NNE
Sich 1 4.0 02:59:23 10° NNW 03:03:37 49° W 03:07:52 10° SSW
FREGAT/IRIS 4.2 03:05:35 34° WNW 03:05:35 34° WNW 03:07:45 10° NNW
SL-16 R/B 2.5 02:59:50 10° NNW 03:05:09 45° NE 03:05:09 45° NE
NOSS 0 Rocket 4.4 03:01:29 10° NNW 03:07:34 61° WSW 03:13:05 12° S
Spot 2 Rocket 4.2 03:09:46 39° NNE 03:09:46 39° NNE 03:13:23 10° N
Cosmos 494 Rocket 3.9 03:05:07 10° SSW 03:10:13 86° WNW 03:13:13 26° NNE
Resurs 01 Rocket 2.9 03:12:41 30° N 03:12:41 30° N 03:15:02 10° N
USA 234 4.1 03:11:06 32° NE 03:12:50 37° NNE 03:18:43 10° NW
Cosmos 1980 4.0 03:11:17 10° NNW 03:16:52 63° WSW 03:19:50 28° S
ATLAS 5 CENTAUR R/B 4.0 03:13:38 10° NNW 03:17:10 17° NNE 03:17:10 17° NNE
Meteor 2-17 Rocket 4.3 03:14:37 10° S 03:20:37 68° E 03:26:41 10° NNE
Meteor 2-3 Rocket 3.6 03:18:33 10° N 03:24:22 88° E 03:25:11 67° SSE
USA 32 4.0 03:19:22 10° N 03:24:38 78° W 03:25:56 51° SSW
Cosmos 1447 Rocket 4.5 03:23:09 10° N 03:29:31 84° W 03:32:06 38° S
CZ-4C R/B 3.4 03:24:32 10° WSW 03:29:36 40° NW 03:33:20 20° NNE
Cosmos 2333 Rocket 3.7 03:24:31 10° NW 03:29:40 35° WSW 03:34:49 10° S
Cosmos 2297 Rocket 2.2 03:32:42 10° SSW 03:37:55 75° WSW 03:37:55 75° WSW
Envisat 3.8 03:45:15 45° NNW 03:45:15 45° NNW 03:48:45 10° NNW
Cosmos 2251 Rocket 4.0 03:41:36 10° SW 03:46:42 59° WNW 03:46:42 59° WNW
Cosmos 2082 4.0 03:43:17 10° SSW 03:48:19 63° WSW 03:48:19 63° WSW
Lacrosse 5 rocket 4.5 04:15:58 10° NW 04:16:10 11° NW 04:16:10 11° NW
Cosmos 2227 Rocket 4.2 04:41:08 10° WSW 04:45:03 24° WNW 04:45:03 24° WNW
SL-16 R/B 4.3 04:44:21 10° NW 04:47:03 23° WNW 04:47:03 23° WNW
ADEOS II 4.4 10:24:09 10° NE 10:26:43 19° ENE 10:26:43 19° ENE
USA 215 4.2 10:30:23 10° NE 10:34:33 43° NE 10:34:33 43° NE
Cosmos 1943 Rocket 4.0 10:57:49 23° NNE 10:57:49 23° NNE 10:59:54 10° NNE
USA 229 DEB 4.2 10:56:52 56° NE 10:56:52 56° NE 11:02:14 10° NE
USA 229 4.2 10:56:57 56° NE 10:56:57 56° NE 11:02:19 10° NE
USA 267 3.4 11:02:12 10° ESE 11:07:44 66° ESE 11:07:44 66° ESE
SJ 16-02 3.6 11:13:06 21° E 11:13:13 21° E 11:16:33 10° NE
MOS 1-B 4.3 11:37:00 10° NNE 11:42:49 83° ESE 11:43:42 65° S
Cosmos 2369 Rocket 4.0 11:53:59 17° NNW 11:53:59 17° NNW 11:56:07 10° N
Cosmos 2227 Rocket 3.3 11:47:40 10° NNW 11:53:06 43° ENE 11:58:29 10° SE
Lacrosse 5 3.6 11:55:22 21° NNW 11:55:47 21° N 11:59:38 10° NE
